User: anonymous
Location: Gairloch Mountain Observatory
(46.1383°N, 60.9640°W)
Time: 09:01:31
(UTC-03:00)
Language:

CENTAUR R/B - Orbit

View from above orbital plane
View from above orbital plane
View from above satellite
View from above satellite

Ground track
Ground track

The orbit data is extracted from the following two-line orbital elements,

1 26906U 01040B   14104.83180976 0.00000150  00000-0  21539-3 0    02
2 26906  63.4675  62.6997 0248089 345.3069  14.6931 13.43902080    00
Epoch (UTC): 14 April 2014 19:57:48
Eccentricity: 0.0248089
inclination: 63.4675°
perigee height: 909 km
apogee height: 1280 km
right ascension of ascending node: 62.6997°
argument of perigee: 345.3069°
revolutions per day: 13.43902080
mean anomaly at epoch: 14.6931°
orbit number at epoch: 0

The dashed part of the orbit path shows where the satellite is in the earth's shadow,  

DLR